Location: Marcé
(47.5801°N, 0.3280°W)
Time: 09:20:46
(UTC+01:00)

Vanguard 3 - Pass Details

Date: 11 December 2021
Orbit: 508 x 3260 km, 33.3° (Epoch: 24 January)

Event Time Altitude Azimuth Distance (km) Brightness Sun altitude
Rises 00:54:45 0° 202° (SSW) 5,765 - -65.4°
Reaches altitude 10° 00:59:03 10° 191° (S) 5,141 - -65.4°
Maximum altitude 01:11:23 28° 141° (SE) 4,600 - -65.2°
Exits shadow 01:21:38 17° 103° (ESE) 5,557 11.3 -64.8°
Drops below altitude 10° 01:26:03 10° 93° (E) 6,196 11.6 -64.6°
Sets 01:31:52 0° 84° (E) 7,129 12.1 -64.3°
